Tracking 30415 objects as of 15-May-2025
HD Live streaming from Space Station
objects crossing your sky now

STARLINK-5775

Track STARLINK-5775 now!
10-day predictions
STARLINK-5775 is classified as:


NORAD ID: 56503
Int'l Code: 2023-065A
Perigee: 565.4 km
Apogee: 567.0 km
Inclination: 43.0 °
Period: 95.8 minutes
Semi major axis: 6937 km
RCS: Unknown
Launch date: May 14, 2023
Source: United States (US)
Launch site: AIR FORCE EASTERN TEST RANGE (AFETR)
Your satellite tracking list
Your tracking list is empty




NASA's NSSDC Master Catalog

Two Line Element Set (TLE):
1 56503U 23065A   25134.69386747  .00000528  00000-0  54141-4 0  9994
2 56503  43.0053  35.3789 0001196 262.9209  97.1497 15.02536115111647
Source of the keplerian elements: AFSPC